Simultaneous Nadir Overpasses (SNOs) Predictions

Prediction of SNOs near US between AQUA and NPP Satellite Orbit:

Table of predicted SNOs near US for the next 10.0 days since TLE Epoch: 10/26/2019
Index Date (AQUA) Time (AQUA) AQUA Lat,Lon Date (NPP) Time (NPP) NPP Lat,Lon Distance(km) Time Diff (sec)
1 10/26/2019 18:16:49 49.95, -80.19 10/26/2019 18:10:42 49.67, -81.72 114.75 367
2 10/26/2019 19:55:42 49.95,-104.91 10/26/2019 19:52:10 49.56,-107.05 160.03 212
3 10/26/2019 21:30:52 36.65,-125.00 10/26/2019 21:29:49 36.18,-127.56 235.20 63
4 10/29/2019 09:23:34 23.04,-113.55 10/29/2019 09:16:04 23.10,-114.00 46.75 450
5 11/01/2019 06:30:11 46.43, -65.03 11/01/2019 06:30:41 46.80, -67.05 159.71 30
6 11/01/2019 08:08:05 49.93, -88.36 11/01/2019 08:11:08 50.42, -90.88 187.57 183
7 11/01/2019 09:46:58 49.93,-113.08 11/01/2019 09:52:36 50.53,-116.20 231.99 338
8 11/03/2019 19:06:14 49.98, -92.55 11/03/2019 19:01:24 49.62, -94.40 138.26 290
9 11/03/2019 20:45:07 49.97,-117.27 11/03/2019 20:42:53 49.57,-119.75 183.55 134




NCC Satellite Simultaneous Nadir Overpasses (SNOs) Prediction Service
